Location: Newark
(54.6833°N, 25.2833°E)
Time: 19:58:00
(UTC+00:00)

Tiros 1 despin weight - Pass Details

Date: 23 November 2019
Orbit: 594 x 642 km, 48.2° (Epoch: 10 December)

Event Time Altitude Azimuth Distance (km) Brightness Sun altitude
Rises 13:42:27 0° 264° (W) 2,833 ? 1.9°
Reaches altitude 10° 13:44:54 10° 255° (WSW) 1,933 ? 1.6°
Maximum altitude 13:48:49 32° 192° (SSW) 1,042 ? 1.1°
Drops below altitude 10° 13:52:47 10° 130° (SE) 1,948 ? 0.7°
Sets 13:55:16 0° 120° (ESE) 2,858 ? 0.4°
